Location: Darmstadt
(49.8706°N, 8.6494°E)
Time: 06:05:33
(UTC+01:00)

Helios 1A Rocket - Pass Details

Date: 31 October 2020
Orbit: 563 x 586 km, 98.3° (Epoch: 03 December)

Event Time Altitude Azimuth Distance (km) Brightness Sun altitude
Rises 18:19:55 0° 152° (SSE) 2,791 6.2 -12.7°
Reaches altitude 10° 18:22:05 10° 148° (SSE) 1,893 5.3 -13.1°
Maximum altitude 18:26:06 55° 71° (ENE) 700 3.0 -13.7°
Drops below altitude 10° 18:30:06 10° 353° (N) 1,894 5.6 -14.3°
Sets 18:32:17 0° 350° (N) 2,793 6.5 -14.7°
